TimeCET,TemperatureF,Dew PointF,Humidity,Sea Level PressureIn,VisibilityMPH,Wind Direction,Wind SpeedMPH,Gust SpeedMPH,PrecipitationIn,Events,Conditions,WindDirDegrees,DateUTC
12:25 AM,39.2,35.6,87,29.89,6.2,West,4.6,-,N/A,,Mostly Cloudy,270,2013-11-19 23:25:00
12:55 AM,41.0,37.4,87,29.89,4.3,North,9.2,-,N/A,Rain,Rain Showers,10,2013-11-19 23:55:00
1:00 AM,40,38,88,29.90,2,NE,11.2,,,Rain,Rain Showers,40,2013-11-20 00:00:00
1:25 AM,41.0,35.6,81,29.89,-9999.0,East,4.6,-,N/A,,Mostly Cloudy,100,2013-11-20 00:25:00
1:55 AM,37.4,35.6,93,29.86,6.2,SW,2.3,-,N/A,,Unknown,220,2013-11-20 00:55:00
2:25 AM,35.6,33.8,93,29.86,6.2,SW,3.5,-,N/A,,Unknown,230,2013-11-20 01:25:00
2:55 AM,33.8,33.8,100,29.86,6.2,Variable,1.2,-,N/A,,Scattered Clouds,0,2013-11-20 01:55:00
3:25 AM,33.8,33.8,100,29.86,1.1,SW,3.5,-,N/A,,Partly Cloudy,230,2013-11-20 02:25:00
3:55 AM,35.6,35.6,100,29.86,5.0,SSW,2.3,-,N/A,,Scattered Clouds,210,2013-11-20 02:55:00
4:00 AM,34,34,100,29.86,6,SSW,2.2,,,Fog,Fog,200,2013-11-20 03:00:00
4:25 AM,33.8,33.8,100,29.86,6.2,Variable,2.3,-,N/A,,Scattered Clouds,0,2013-11-20 03:25:00
4:55 AM,32.0,32.0,100,29.83,6.2,SW,3.5,-,N/A,,Partly Cloudy,230,2013-11-20 03:55:00
5:25 AM,32.0,32.0,100,29.83,-9999.0,South,3.5,-,N/A,,Partly Cloudy,170,2013-11-20 04:25:00
5:55 AM,32.0,32.0,100,29.83,6.2,SW,5.8,-,N/A,,Partly Cloudy,230,2013-11-20 04:55:00
6:25 AM,35.6,33.8,93,29.83,6.2,SW,6.9,-,N/A,,Overcast,230,2013-11-20 05:25:00
6:55 AM,35.6,33.8,93,29.80,6.2,SW,4.6,-,N/A,,Unknown,220,2013-11-20 05:55:00
7:00 AM,35,33,91,29.81,22,SW,4.5,,,,Partly Cloudy,230,2013-11-20 06:00:00
7:25 AM,33.8,32.0,93,29.80,6.2,SW,5.8,-,N/A,,Partly Cloudy,230,2013-11-20 06:25:00
7:55 AM,35.6,35.6,100,29.80,6.2,WNW,3.5,-,N/A,,Partly Cloudy,290,2013-11-20 06:55:00
8:25 AM,35.6,33.8,93,29.77,6.2,SSE,3.5,-,N/A,,Unknown,160,2013-11-20 07:25:00
8:55 AM,33.8,32.0,93,29.77,6.2,SSW,6.9,-,N/A,,Unknown,210,2013-11-20 07:55:00
9:25 AM,37.4,33.8,87,29.74,6.2,South,6.9,-,N/A,,Unknown,190,2013-11-20 08:25:00
9:55 AM,41.0,35.6,81,29.71,6.2,SW,8.1,-,N/A,,Unknown,220,2013-11-20 08:55:00
10:00 AM,42,35,70,29.73,16,SW,11.2,,,,Scattered Clouds,220,2013-11-20 09:00:00
10:25 AM,42.8,35.6,76,29.71,6.2,SW,13.8,-,N/A,,Unknown,230,2013-11-20 09:25:00
10:55 AM,42.8,33.8,70,29.68,6.2,SW,15.0,-,N/A,,Unknown,220,2013-11-20 09:55:00
11:25 AM,41.0,33.8,76,29.65,6.2,SSW,18.4,-,N/A,,Partly Cloudy,200,2013-11-20 10:25:00
11:55 AM,41.0,33.8,76,29.65,6.2,SSW,16.1,-,N/A,,Scattered Clouds,200,2013-11-20 10:55:00
12:25 PM,41.0,32.0,70,29.62,6.2,South,17.3,-,N/A,,Partly Cloudy,190,2013-11-20 11:25:00
12:55 PM,41.0,32.0,70,29.56,6.2,South,13.8,-,N/A,,Unknown,190,2013-11-20 11:55:00
1:00 PM,40,32,63,29.58,22,South,15.7,,,,Partly Cloudy,190,2013-11-20 12:00:00
1:25 PM,41.0,32.0,70,29.56,6.2,South,18.4,-,N/A,,Unknown,190,2013-11-20 12:25:00
1:55 PM,41.0,32.0,70,29.53,6.2,South,16.1,-,N/A,,Unknown,180,2013-11-20 12:55:00
2:25 PM,41.0,33.8,76,29.50,6.2,South,18.4,-,N/A,,Mostly Cloudy,190,2013-11-20 13:25:00
2:55 PM,39.2,35.6,87,29.50,6.2,South,19.6,32.2,N/A,Rain,Light Rain,190,2013-11-20 13:55:00
3:25 PM,39.2,35.6,87,29.47,6.2,South,19.6,-,N/A,Rain,Light Rain,180,2013-11-20 14:25:00
3:55 PM,39.2,35.6,87,29.44,6.2,South,17.3,29.9,N/A,Rain,Light Rain,180,2013-11-20 14:55:00
4:00 PM,39,36,86,29.46,8,South,20.1,,,Rain,Light Rain,180,2013-11-20 15:00:00
4:25 PM,39.2,35.6,87,29.44,6.2,South,20.7,-,N/A,Rain,Light Rain,180,2013-11-20 15:25:00
4:55 PM,39.2,35.6,87,29.42,6.2,South,17.3,-,N/A,Rain,Light Rain,170,2013-11-20 15:55:00
5:25 PM,39.2,35.6,87,29.42,5.0,South,17.3,28.8,N/A,Rain,Light Rain,170,2013-11-20 16:25:00
5:55 PM,37.4,35.6,93,29.39,4.3,South,17.3,-,N/A,Rain,Light Rain,170,2013-11-20 16:55:00
6:25 PM,37.4,35.6,93,29.39,4.3,South,18.4,-,N/A,Rain,Light Rain,170,2013-11-20 17:25:00
6:55 PM,37.4,35.6,93,29.39,3.1,South,17.3,-,N/A,Rain,Light Rain,180,2013-11-20 17:55:00
7:00 PM,38,36,89,29.40,4,South,15.7,,,Rain,Rain,180,2013-11-20 18:00:00
7:25 PM,37.4,35.6,93,29.39,4.3,South,17.3,-,N/A,Rain,Light Rain,170,2013-11-20 18:25:00
7:55 PM,37.4,35.6,93,29.39,-9999.0,South,17.3,-,N/A,Rain,Light Rain,170,2013-11-20 18:55:00
8:25 PM,35.6,35.6,100,29.36,5.0,SSE,16.1,-,N/A,Rain,Light Rain,160,2013-11-20 19:25:00
8:55 PM,37.4,35.6,93,29.36,3.1,SSE,15.0,-,N/A,Rain,Light Rain,160,2013-11-20 19:55:00
9:25 PM,35.6,35.6,100,29.36,-9999.0,SSE,15.0,-,N/A,Rain,Light Rain,160,2013-11-20 20:25:00
9:55 PM,37.4,35.6,93,29.36,5.6,SSE,15.0,-,N/A,,Light Drizzle,150,2013-11-20 20:55:00
10:25 PM,37.4,35.6,93,29.36,6.2,SSE,13.8,-,N/A,Rain,Light Rain,150,2013-11-20 21:25:00
10:55 PM,35.6,33.8,93,29.36,4.3,SSE,13.8,-,N/A,,Drizzle,150,2013-11-20 21:55:00
11:25 PM,35.6,35.6,100,29.36,6.2,SE,12.7,-,N/A,,Mostly Cloudy,140,2013-11-20 22:25:00
11:55 PM,37.4,35.6,93,29.36,6.2,SE,9.2,-,N/A,Rain,Drizzle,130,2013-11-20 22:55:00